Location: Bu�n Treun
(12.1333°N, 108.3167°E)
Time: 00:36:14
(UTC+00:00)

ASTRO E2 - Pass Details

Date: 13 July 2020
Orbit: 510 x 516 km, 31.4° (Epoch: 02 August)

Event Time Altitude Azimuth Distance (km) Brightness Sun altitude
Rises 12:41:46 0° 245° (WSW) 2,605 6.8 -19.8°
Reaches altitude 10° 12:44:01 10° 248° (WSW) 1,719 5.8 -20.3°
Maximum altitude 12:47:56 63° 329° (NNW) 568 3.0 -21.1°
Enters shadow 12:49:23 35° 38° (NE) 825 3.6 -21.4°
